TimeEST,TemperatureF,Dew PointF,Humidity,Sea Level PressureIn,VisibilityMPH,Wind Direction,Wind SpeedMPH,Gust SpeedMPH,PrecipitationIn,Events,Conditions,WindDirDegrees,DateUTC
12:53 AM,26.1,24.1,92,30.69,8.0,Calm,Calm,-,N/A,,Clear,0,2012-11-18 05:53:00
1:53 AM,25.0,23.0,92,30.68,9.0,Calm,Calm,-,N/A,,Clear,0,2012-11-18 06:53:00
2:53 AM,26.1,24.1,92,30.68,9.0,ESE,3.5,-,N/A,,Clear,120,2012-11-18 07:53:00
3:53 AM,25.0,21.0,85,30.68,9.0,SE,4.6,-,N/A,,Clear,130,2012-11-18 08:53:00
4:53 AM,21.9,19.0,89,30.70,10.0,Calm,Calm,-,N/A,,Clear,0,2012-11-18 09:53:00
5:53 AM,21.9,18.0,85,30.72,10.0,Calm,Calm,-,N/A,,Clear,0,2012-11-18 10:53:00
6:53 AM,21.9,19.0,89,30.72,8.0,Calm,Calm,-,N/A,,Clear,0,2012-11-18 11:53:00
7:53 AM,24.1,21.9,91,30.73,8.0,Calm,Calm,-,N/A,,Clear,0,2012-11-18 12:53:00
8:53 AM,30.0,27.0,88,30.72,8.0,Calm,Calm,-,N/A,,Clear,0,2012-11-18 13:53:00
9:53 AM,37.9,30.0,73,30.71,10.0,ESE,8.1,-,N/A,,Clear,120,2012-11-18 14:53:00
10:53 AM,41.0,30.0,65,30.69,10.0,East,5.8,-,N/A,,Clear,100,2012-11-18 15:53:00
11:53 AM,44.1,30.0,58,30.66,10.0,ESE,6.9,-,N/A,,Clear,110,2012-11-18 16:53:00
12:53 PM,46.9,30.9,54,30.64,10.0,SSE,5.8,-,N/A,,Clear,150,2012-11-18 17:53:00
1:53 PM,48.0,30.0,50,30.62,10.0,ESE,4.6,-,N/A,,Clear,110,2012-11-18 18:53:00
2:53 PM,48.9,30.9,50,30.61,10.0,SE,4.6,-,N/A,,Clear,140,2012-11-18 19:53:00
3:53 PM,46.9,30.0,52,30.61,10.0,East,5.8,-,N/A,,Clear,90,2012-11-18 20:53:00
4:53 PM,42.1,28.9,60,30.61,10.0,East,6.9,-,N/A,,Clear,100,2012-11-18 21:53:00
5:53 PM,39.0,28.0,65,30.61,10.0,East,6.9,-,N/A,,Clear,80,2012-11-18 22:53:00
6:53 PM,37.0,27.0,67,30.61,10.0,East,6.9,-,N/A,,Clear,90,2012-11-18 23:53:00
7:53 PM,32.0,26.1,79,30.61,10.0,East,3.5,-,N/A,,Clear,90,2012-11-19 00:53:00
8:53 PM,32.0,25.0,75,30.61,10.0,SE,4.6,-,N/A,,Clear,130,2012-11-19 01:53:00
9:53 PM,33.1,25.0,72,30.60,10.0,East,8.1,-,N/A,,Clear,100,2012-11-19 02:53:00
10:53 PM,30.9,24.1,76,30.58,10.0,ESE,10.4,-,N/A,,Clear,110,2012-11-19 03:53:00